Tracking 29892 objects as of 21-Nov-2024
HD Live streaming from Space Station
objects crossing your sky now

FENGYUN 2D DEB

Track FENGYUN 2D DEB now!


NORAD ID: 33458
Int'l Code: 2006-053D
Perigee: 35,707.0 km
Apogee: 35,865.0 km
Inclination: 10.6 °
Period: 1,435.7 minutes
Semi major axis: 42156 km
RCS: 0.003 m2 (small)
Launch date: December 8, 2006
Source: People's Republic of China (PRC)
Launch site: Xichang Space Center, China (XSC)

Note: This is SATELLITE DEBRIS
Your satellite tracking list
Your tracking list is empty




NASA's NSSDC Master Catalog

Two Line Element Set (TLE):
1 33458U 06053D   24325.73910763 -.00000110  00000-0  00000+0 0  9991
2 33458  10.6312  41.7528 0018740   4.1469 355.8416  1.00299445 59582
Source of the keplerian elements: AFSPC